EHI
2 4 6 6 5 7 8 7 8 7 6 4 3 2 2 2 3 3 3 3 3 3 2 1 0 0 0 0 0 0 0 0 0 0 0 0 0 0 0 0 0 0 0
5 8 10 7 5 5 7 8 8 8 7 5 3 3 2 2 2 3 3 3 4 3 2 1 0 0 0 0 0 0 0 0 0 0 0 0 0 0 0 0 0 0 0
11 12 13 10 6 4 6 8 8 8 7 6 5 4 3 1 1 3 3 4 4 4 3 1 0 0 0 0 0 0 0 0 0 0 0 0 0 0 0 0 0 0 0
13 14 14 11 8 5 6 6 5 5 5 5 6 5 3 1 1 2 3 3 4 3 3 2 1 0 0 0 0 0 0 0 0 0 0 0 0 0 0 0 0 0 0
12 13 12 11 9 7 6 4 4 4 4 5 6 4 3 2 1 1 2 3 4 3 3 3 2 1 0 0 0 0 0 0 0 0 0 0 0 0 0 0 0 0 0
9 11 11 10 10 8 6 5 4 5 6 6 5 3 2 2 1 0 1 4 5 4 4 5 3 1 0 0 0 0 0 0 0 0 0 0 0 0 0 0 0 0 0
7 9 9 10 10 10 8 7 7 7 8 7 5 3 2 2 1 0 1 4 6 6 5 5 4 2 0 0 0 0 0 0 0 0 0 0 0 0 0 0 0 0 0
5 6 8 10 10 9 9 8 8 8 7 6 4 3 3 2 2 1 1 2 5 6 5 5 4 3 1 0 0 0 0 0 0 0 0 0 0 0 0 0 0 0 0
4 5 8 10 10 8 7 7 7 6 5 4 3 3 2 2 2 2 1 1 2 4 4 3 3 2 2 1 0 0 0 0 0 0 0 0 0 0 0 0 0 0 0
3 5 9 11 9 7 6 6 6 4 3 3 3 2 1 1 2 2 1 0 1 1 2 2 1 1 1 1 1 0 0 0 0 0 0 0 0 0 0 0 0 0 0
2 6 11 12 9 7 6 5 4 2 1 2 3 2 1 0 1 2 1 0 0 0 1 1 0 0 0 1 1 0 0 0 0 0 0 0 0 0 0 0 0 0 0
1 5 10 11 8 6 4 3 2 0 0 1 3 4 3 1 1 1 2 1 0 0 0 0 0 0 0 0 0 0 0 0 0 0 0 0 0 0 0 0 0 0 0
2 4 8 9 8 6 3 1 1 0 0 2 5 5 3 2 1 2 2 1 1 1 0 0 0 0 0 0 0 0 0 0 0 0 0 0 0 0 0 0 0 0 0
4 4 6 8 8 6 3 2 2 1 2 3 5 4 2 2 2 3 3 3 2 2 1 0 0 0 0 0 0 0 0 0 0 0 0 0 0 0 0 0 0 0 0
4 4 5 6 6 4 3 3 3 3 4 4 4 2 1 2 3 4 4 4 3 2 1 0 0 0 0 0 0 0 0 0 0 0 0 0 0 0 0 0 0 0 0
2 2 3 4 4 3 3 3 3 3 3 3 1 1 2 3 4 4 4 3 3 2 1 0 0 0 0 0 0 0 0 0 0 0 0 0 0 0 0 0 0 0 0
1 1 1 2 3 3 3 3 3 2 1 1 0 1 3 5 5 4 4 4 3 2 1 1 0 0 0 0 0 0 0 0 0 0 0 0 0 0 0 0 0 0 0
2 2 1 1 1 2 2 2 2 2 2 1 1 3 5 5 4 3 4 4 3 1 1 1 0 0 0 0 0 0 0 0 0 0 0 0 0 0 0 0 0 0 0
3 2 1 0 0 1 1 1 1 3 3 2 3 5 5 4 3 3 3 3 1 0 1 1 0 0 0 0 0 0 0 0 0 0 0 0 0 0 0 0 0 0 0
3 2 1 0 0 0 0 0 1 3 4 4 5 5 4 3 3 3 2 1 0 0 0 0 0 0 0 0 0 0 0 0 0 0 0 0 0 0 0 0 0 0 0
3 2 1 0 0 0 0 0 1 3 5 5 5 4 3 3 3 3 1 0 0 0 0 0 0 0 0 0 0 0 0 0 0 0 0 0 0 0 0 0 0 0 0
3 2 1 0 0 0 0 0 1 4 6 5 4 3 3 3 3 2 1 0 0 0 0 0 0 0 0 0 0 0 0 0 0 0 0 0 0 0 0 0 0 0 0
3 2 1 0 0 0 0 0 1 3 5 4 3 3 3 3 2 1 0 0 0 0 0 0 0 0 0 0 0 0 0 0 0 0 0 0 0 0 0 0 0 0 0
2 1 0 0 0 0 0 0 0 1 3 3 3 2 2 1 1 0 0 0 0 0 0 0 0 0 0 0 0 0 0 0 0 0 0 0 0 0 0 0 0 0 0
1 0 0 0 0 0 0 0 0 1 2 2 1 1 1 0 0 0 0 0 0 0 0 0 0 0 0 0 0 0 0 0 0 0 0 0 0 0 0 0 0 0 0
0 0 0 0 0 0 0 0 1 1 1 1 0 0 0 0 0 0 0 0 0 0 0 0 0 0 0 0 0 0 0 0 0 0 0 0 0 0 0 0 0 0 0
Wind_Speed
7 6 6 5 4 4 5 5 4 3 3 2 2 2 2 1 1 2 2 2 2 3 3 2 3 3 3 2 2 2 2 1 2 2 2 1 2 2 2 2 2 3 3
7 7 7 6 4 4 4 4 4 3 3 2 2 1 2 2 2 2 2 1 2 3 2 3 3 3 2 3 2 2 2 1 1 1 1 1 2 2 1 1 1 2 2
7 7 7 6 4 4 4 4 4 4 3 3 2 2 2 1 1 1 1 1 2 2 2 3 2 2 2 2 2 2 2 1 1 1 1 1 0 1 1 1 1 2 1
6 6 6 6 5 4 3 3 4 4 3 3 2 2 2 2 2 2 2 1 2 2 2 2 2 2 2 2 1 2 2 1 0 1 1 1 1 1 1 2 1 1 1
6 6 6 6 6 5 4 3 4 3 3 3 3 2 2 1 1 2 2 2 2 2 2 2 1 2 2 2 2 2 1 1 1 0 1 1 1 1 1 0 1 1 0
6 6 6 5 5 5 4 3 3 3 3 3 3 2 2 2 2 2 2 1 2 1 2 2 1 1 2 2 2 2 1 1 1 0 0 1 0 0 0 1 1 0 1
6 6 6 6 5 5 5 4 4 3 3 3 2 2 3 2 2 2 2 2 1 1 2 2 2 2 1 1 1 2 1 1 1 1 0 0 0 0 0 1 0 0 0
5 5 6 5 5 5 5 4 4 3 3 3 2 2 2 2 1 2 2 2 2 2 3 2 2 2 2 1 1 0 1 1 1 1 1 1 0 0 0 1 1 0 1
4 5 5 5 5 5 5 4 4 3 3 3 2 2 2 2 2 2 2 2 2 2 3 3 2 2 2 2 2 1 0 1 1 1 1 1 1 0 0 1 1 2 0
3 4 4 5 4 4 5 4 4 4 3 2 2 1 2 2 2 2 2 2 2 2 3 3 3 3 3 2 2 1 1 1 1 1 1 0 0 1 0 0 0 1 1
3 3 3 4 4 4 4 5 4 3 3 2 2 2 2 2 1 2 2 2 2 2 3 3 3 3 3 3 3 2 2 1 1 1 1 0 1 1 0 0 0 0 1
3 3 3 3 3 4 4 4 4 3 3 3 2 2 1 1 2 1 1 1 2 2 2 3 2 2 3 3 3 3 3 2 1 1 1 1 1 1 0 0 1 1 1
3 3 3 2 2 3 3 3 3 3 3 3 2 2 2 2 1 1 1 1 1 2 2 2 2 2 2 2 2 3 3 3 2 2 2 2 2 1 0 0 0 0 0
2 3 2 2 2 2 2 2 2 2 3 3 2 2 2 2 1 1 1 1 1 1 1 2 2 2 2 2 2 2 2 2 1 1 1 1 2 2 1 1 1 1 1
2 2 2 1 1 1 2 2 2 2 2 3 3 2 2 2 1 1 1 1 1 1 1 1 1 1 1 2 2 2 1 1 1 1 1 1 2 2 1 1 1 1 1
1 1 1 2 1 1 2 2 2 2 2 3 3 3 3 2 2 2 2 2 1 1 1 1 1 1 1 2 3 2 1 1 1 1 1 1 2 2 2 1 1 1 1
2 2 1 1 1 2 2 2 2 2 2 2 2 2 2 2 2 2 2 2 2 2 2 2 2 1 1 2 1 1 1 1 1 1 1 1 1 1 2 2 2 2 2
1 0 0 0 0 1 1 0 1 2 2 2 2 2 2 2 2 2 2 2 2 2 2 2 2 2 1 2 1 1 1 1 2 2 1 1 1 1 1 1 1 1 2
1 1 1 1 1 1 1 0 1 1 1 1 1 1 2 2 2 3 3 2 2 2 2 2 2 2 2 3 2 1 1 2 2 1 1 1 1 0 1 1 1 2 2
2 2 1 1 1 1 1 0 1 1 0 1 1 1 1 2 3 3 3 2 2 2 2 2 2 2 2 2 2 2 1 1 1 1 0 0 0 0 0 1 2 2 3
2 2 1 1 1 1 0 1 1 0 0 1 1 1 1 2 3 3 2 3 2 2 2 2 2 2 2 3 3 2 1 1 1 1 1 0 1 1 2 2 2 3 3
1 1 0 1 0 0 0 1 1 0 1 1 0 1 1 2 2 3 2 2 3 2 2 2 1 1 2 3 3 3 2 1 1 1 1 1 1 2 3 2 3 4 3
0 0 0 1 0 0 1 1 1 1 1 1 0 0 1 2 2 3 3 2 2 2 2 2 1 1 1 1 2 3 3 3 1 1 1 2 4 3 2 3 3 2 1
1 0 0 1 1 1 1 1 1 1 1 1 1 1 1 1 1 2 2 2 2 2 2 2 2 1 0 1 1 1 1 1 1 1 1 2 2 1 1 1 1 1 1
1 1 1 2 2 1 2 1 1 1 1 1 1 1 1 1 1 1 1 2 2 3 3 2 2 2 1 2 1 1 1 1 1 0 0 0 1 1 1 1 1 1 0
1 1 2 2 2 2 2 1 1 1 1 1 1 1 1 1 1 1 1 1 2 2 3 3 3 2 3 3 2 1 1 1 1 1 1 1 1 2 1 1 1 1 1
Wind_Direction
160 154 144 134 141 138 133 132 133 129 119 108 101 117 121 116 101 101 81 49 57 63 68 59 66 65 75 76 74 81 72 53 59 62 40 20 53 77 70 48 49 53 59
158 154 151 147 159 142 140 140 139 141 127 119 128 129 135 148 128 108 110 92 79 78 75 83 83 79 79 69 65 73 63 37 48 83 75 37 20 7 68 83 70 64 56
156 154 154 152 151 146 147 141 139 139 132 135 123 107 96 91 97 124 120 113 98 90 78 82 96 104 101 99 96 95 91 60 2 52 80 94 145 308 0 66 77 71 63
149 148 149 148 153 137 134 135 142 145 139 137 138 142 139 157 184 161 145 150 122 110 99 91 92 109 104 106 112 102 105 101 18 4 39 87 118 121 12 346 24 83 86
150 153 152 155 150 140 140 147 144 137 134 139 136 152 155 183 160 142 142 155 136 134 137 126 107 108 114 117 99 91 91 112 138 91 34 24 19 66 129 222 316 350 318
147 147 145 149 144 141 142 148 146 140 131 132 140 164 168 176 144 155 163 168 149 166 158 135 129 116 111 121 132 134 134 155 130 127 134 138 132 274 113 175 220 227 261
144 142 142 148 148 148 149 149 138 134 134 143 160 182 176 174 171 178 177 173 164 169 163 142 146 129 128 149 152 152 164 172 157 171 182 136 128 142 123 114 179 119 251
143 146 147 145 151 151 149 149 144 142 144 160 179 191 167 166 181 177 172 189 195 176 155 150 154 148 142 134 110 113 182 146 156 153 132 116 83 68 92 128 119 48 330
133 140 145 145 147 151 149 151 150 153 161 172 186 193 176 177 174 182 191 194 201 172 158 168 173 162 157 155 140 139 133 82 100 132 123 134 160 154 82 113 142 146 159
127 135 142 147 149 149 153 160 163 165 162 164 197 189 187 197 188 182 193 196 196 180 169 182 177 167 162 158 140 140 140 118 95 100 106 110 170 154 137 129 65 115 152
131 136 137 141 146 150 160 168 170 166 164 168 190 204 202 206 205 183 196 192 200 185 176 184 182 171 165 164 158 158 158 156 162 142 130 154 113 94 105 79 90 66 134
127 126 125 134 144 158 168 171 170 171 171 179 191 195 198 216 206 190 189 195 201 186 182 172 173 167 165 167 162 168 161 167 180 184 161 175 122 78 69 118 164 197 179
101 107 115 132 148 158 166 167 171 176 169 170 181 181 195 221 223 193 163 198 195 190 177 158 166 169 165 157 160 167 164 170 184 194 184 183 162 173 170 142 138 221 187
95 101 118 140 155 159 158 165 175 167 159 162 173 187 203 211 217 171 166 206 188 172 171 160 172 166 156 141 141 142 146 166 182 202 191 179 171 163 176 183 193 186 148
98 108 125 121 150 152 154 165 172 169 161 160 179 194 204 204 199 171 182 176 141 160 152 151 165 163 140 126 116 124 127 141 187 229 202 179 171 156 158 167 203 189 169
127 120 131 140 161 188 183 184 189 189 181 173 183 200 199 188 179 177 164 149 152 171 145 139 113 108 100 105 109 117 129 164 193 234 226 216 204 174 176 193 197 191 188
147 162 186 141 182 191 189 200 200 207 199 183 183 201 190 173 179 170 152 155 166 180 156 155 142 132 117 108 99 108 153 206 239 249 233 269 230 181 176 210 228 235 236
112 142 177 135 81 66 57 90 210 211 201 189 183 186 172 170 172 163 164 168 166 173 163 166 156 150 164 178 202 225 208 230 240 238 231 232 231 209 160 194 237 254 252
76 58 27 17 44 27 53 32 224 195 171 165 176 155 158 167 170 167 169 158 150 170 165 172 173 171 180 188 188 200 222 242 242 231 209 172 195 191 125 169 232 255 272
62 53 28 2 359 28 57 286 225 197 203 166 162 145 146 162 171 166 166 153 158 175 160 163 165 165 162 186 191 212 224 263 272 248 180 35 329 314 233 216 220 235 246
62 59 34 359 343 32 39 293 269 255 296 99 122 143 151 170 162 154 147 143 160 165 166 168 172 170 167 187 189 186 208 248 278 274 243 276 338 292 270 256 235 252 262
61 61 11 307 332 21 333 285 289 357 64 72 131 153 155 159 147 142 151 154 163 157 167 170 182 185 177 189 198 202 229 253 253 265 273 281 307 295 288 272 266 275 280
321 343 288 274 263 263 282 263 282 75 91 89 351 210 157 146 153 160 166 161 161 161 171 181 191 208 179 185 197 215 247 258 260 264 271 289 293 292 282 269 275 280 255
224 198 243 266 280 292 289 249 221 157 165 197 220 218 162 139 156 157 163 160 173 173 179 189 199 211 170 127 164 222 248 258 283 297 298 308 304 301 283 280 284 258 233
254 233 246 248 251 264 261 242 237 186 219 227 232 210 172 151 145 154 169 179 181 173 177 189 191 186 211 224 223 210 250 229 233 233 273 283 290 286 278 291 293 293 302
285 271 266 260 248 243 248 227 196 188 214 225 236 219 194 159 167 164 136 92 157 149 168 184 193 209 214 210 226 261 273 250 220 172 207 230 235 243 239 233 250 256 262